Flag for Czech Republic Weather past 2 weeks in Brno, Czech Republic

Now
44 °F

Fog.


Feels Like: 44 °F
Forecast: 35 / 53 °F
Wind: 2 mph from East

Location: Brno / Turany

Current Time: Oct 26, 2014 at 2:29:48 AM

Latest Report: Oct 26, 2014 at 1:00 AM


Visibility: 6 mi

Pressure: 30.34 "Hg

Humidity: 91%

Dew point: 42 °F

Location of BrnoLocation

Historic Weather in Brno — Graph

°F

Brno temperature yesterday

Maximum temperature yesterday: 45 °F (at 5:00 PM)
Minimum temperature yesterday: 37 °F (at 7:00 AM)
Average temperature yesterday: 41 °F

Past Weeks' High & Low Weather Summary

 TemperatureHumidityPressure
High71 °F (Oct 12, 4:00 PM)99% (Oct 20, 4:00 AM)30.34 "Hg (Oct 20, 4:00 AM)
Low37 °F (Oct 25, 7:00 AM)53% (Oct 21, 3:00 PM)29.57 "Hg (Oct 22, 1:00 AM)
Average53 °F85%29.98 "Hg
* Reported Oct 11 1:00 AM — Oct 26 1:00 AM, Brno, Weather by CustomWeather, © 2014

Note: Actual official high and low records may vary slightly from our data, if they occured in-between our weather recording intervals... More about our weather records

Advertising

Brno weather history for previous 24 hours

 ConditionsComfort  
Time TempWeatherWind HumidityBarometerVisibility
1:00 AM
Oct 26
44 °FFog.2 mph91%30.34 "Hg6 mi
12:00 AM44 °FFog.1 mph91%30.33 "Hg6 mi
11:00 PM
Oct 25
44 °FOvercast.1 mph91%30.32 "Hg5 mi
10:00 PM44 °FDrizzle. Overcast.2 mph90%30.32 "Hg5 mi
9:00 PM44 °FDrizzle. Overcast.3 mph91%30.30 "Hg4 mi
8:00 PM44 °FDrizzle. Overcast.3 mph92%30.30 "Hg4 mi
7:00 PM45 °FDrizzle. Overcast.3 mph92%30.29 "Hg4 mi
6:00 PM45 °FFog.2 mph92%30.28 "Hg4 mi
5:00 PM45 °FFog.2 mph90%30.27 "Hg4 mi
4:00 PM44 °FFog.2 mph89%30.27 "Hg3 mi
3:00 PM44 °FFog.2 mph89%30.27 "Hg3 mi
2:00 PM43 °FFog.2 mph84%30.28 "Hg4 mi
1:00 PM42 °FFog.1 mph84%30.29 "Hg4 mi
12:00 PM42 °FFog.1 mph87%30.29 "Hg4 mi
11:00 AM40 °FFog.2 mph87%30.29 "Hg4 mi
10:00 AM39 °FLow clouds.1 mph92%30.28 "Hg2 mi
9:00 AM38 °FDrizzle. Low clouds.1 mph95%30.27 "Hg1 mi
8:00 AM38 °FDrizzle. Low clouds.2 mph95%30.26 "Hg1 mi
7:00 AM37 °FDrizzle. Low clouds.3 mph94%30.25 "Hg1 mi
6:00 AM38 °FFog.3 mph88%30.24 "Hg4 mi
5:00 AM38 °FFog.5 mph88%30.24 "Hg5 mi
4:00 AM38 °FFog.5 mph87%30.24 "Hg5 mi
3:00 AMN/APassing clouds.10 mphN/AN/A1 mi
2:00 AM39 °FOvercast.6 mph82%30.25 "Hg7 mi
Weather by CustomWeather, © 2014

See weather overviewHow to use our weather pages